User: anonymous   Login
Location: Drayton Valley
(53.2170°N, 114.9830°W)
Time: 17:48:56
(UTC-06:00)
Language:

Cosmos 1302 Rocket - Orbit

View from above orbital plane
View from above orbital plane
View from above satellite
View from above satellite

Ground track
Ground track

The orbit data is extracted from the following two-line orbital elements,

1 12792U 81084B   16273.13219834  .00000055  00000-0  27235-4 0  9995
2 12792  74.0302 155.9493 0013146 148.9851 211.2082 14.37435754837542
Epoch (UTC): 29 September 2016 03:10:21
Eccentricity: 0.0013146
inclination: 74.0302°
perigee height: 757 km
apogee height: 776 km
right ascension of ascending node: 155.9493°
argument of perigee: 148.9851°
revolutions per day: 14.37435754
mean anomaly at epoch: 211.2082°
orbit number at epoch: 83754

The dashed part of the orbit path shows where the satellite is in the earth's shadow,  

DLR